{"data":{"norad_id":64143,"intl_designator":"2025-111W","name":"STARLINK-34133","alt_names":[],"object_type":"PAYLOAD","status":"ACTIVE","operator":null,"country":"US","launch_date":"2025-05-24","launch_site_code":"AFETR","launch_vehicle":null,"mission":null,"orbit_class":"UNKNOWN","rcs_meters":null,"size_class":null,"mass_kg":null,"dimensions":null,"purposes":["comms"],"wikipedia_slug":null,"has_3d_model":false,"image_url":null,"decayed_at":null,"tle_current":{"epoch":"2026-09-20T17:14:03.335424Z","epoch_age_seconds":121645,"freshness":"FRESH","line1":"1 64143U 25111W   26263.71809416  .00013478  00000+0  49855-3 0  9999","line2":"2 64143  42.9970  56.1737 0002424 270.8670  89.1904 15.27570407 75294","mean_motion":15.27570407,"eccentricity":0.0002424,"inclination_deg":42.997,"raan_deg":56.1737,"arg_perigee_deg":270.867,"mean_anomaly_deg":89.1904,"bstar":0.00049855,"rev_number":7529,"period_min":94.267340700061,"perigee_km":481.41466261041,"apogee_km":484.74097955567,"semimajor_km":6861.214821083,"source":"CELESTRAK","updated_at":"2026-09-21T09:00:35.236619Z"}}}